Location: Martley
(52.2333°N, 2.3667°W)
Time: 16:30:52
(UTC+00:00)

Cosmos 1484 Rocket - Pass Details

Date: 11 December 2019
Orbit: 505 x 561 km, 97.4° (Epoch: 23 January)

Event Time Altitude Azimuth Distance (km) Brightness Sun altitude
Rises 06:29:57 0° 3° (N) 2,749 6.2 -14.0°
Reaches altitude 10° 06:32:27 10° 349° (NNW) 1,841 5.2 -13.6°
Maximum altitude 06:35:31 22° 298° (WNW) 1,231 4.0 -13.2°
Enters shadow 06:36:28 20° 277° (W) 1,295 4.1 -13.0°
